Waarnemingen

Advertentie
Mijn weer
Gourette, Frankrijk (7775): temperatuur & dauwpunt: 22.05.2020 00:00:00 - 28.05.2020 00:00:00 (CEST)Gourette, Frankrijk (7775): windsnelheid & windstoten: 22.05.2020 00:00:00 - 28.05.2020 00:00:00 (CEST)Gourette, Frankrijk (7775): windrichting: 22.05.2020 00:00:00 - 28.05.2020 00:00:00 (CEST)Gourette, Frankrijk (7775): luchtdruk: 22.05.2020 00:00:00 - 28.05.2020 00:00:00 (CEST)Gourette, Frankrijk (7775): zicht: 22.05.2020 00:00:00 - 28.05.2020 00:00:00 (CEST)Gourette, Frankrijk (7775): neerslag: 22.05.2020 00:00:00 - 28.05.2020 00:00:00 (CEST)
Datum & Tijd tt [°C] td [°C] ff [km/u] ff [kn] fx [km/u] fx [kn] dd ppp [hPa] vv [km] rr [mm]
28.05.2020 00:00:00 17,8 5,0 16 9 22 12 NNW 1027,2 - 0,0
27.05.2020 23:00:00 19,6 4,5 15 8 18 10 NW 1027,3 - 0,0
27.05.2020 22:00:00 19,1 4,4 8 4 13 7 WZW 1027,2 - 0,0
27.05.2020 21:00:00 19,8 7,8 6 3 9 5 WNW 1026,7 - 0,0
27.05.2020 20:00:00 22,6 10,1 7 4 18 10 N 1026,7 20 0,0
27.05.2020 19:00:00 23,6 8,1 15 8 21 11 NNO 1026,5 - 0,0
27.05.2020 18:00:00 23,9 8,3 14 8 27 14 N 1026,9 - 0,0
27.05.2020 17:00:00 24,0 9,2 19 11 29 16 NNO 1027,3 - 0,0
27.05.2020 16:00:00 22,1 8,9 18 10 28 15 NO 1027,8 - 0,0
27.05.2020 15:00:00 21,9 9,4 16 9 24 13 ONO 1028,3 - 0,0
27.05.2020 14:00:00 22,4 10,2 12 7 23 12 ONO 1028,7 - 0,0
27.05.2020 13:00:00 22,3 10,1 13 7 26 14 O 1028,9 - 0,0
27.05.2020 12:00:00 21,4 9,0 13 7 23 13 ONO 1029,0 - 0,0
27.05.2020 11:00:00 21,9 6,9 14 8 23 12 ONO 1029,0 - 0,0
27.05.2020 10:00:00 21,7 9,9 13 7 22 12 ONO 1028,9 - 0,0
27.05.2020 09:00:00 21,3 9,5 6 3 11 6 NNO 1028,8 - 0,0
27.05.2020 08:00:00 18,8 8,7 2 1 4 2 W 1028,9 20 0,0
27.05.2020 07:00:00 18,7 7,8 0 0 8 4 N 1028,6 - 0,0
27.05.2020 06:00:00 18,2 7,3 5 3 14 7 N 1028,2 - 0,0
27.05.2020 05:00:00 18,2 8,2 7 4 14 8 NNO 1028,0 10 0,0
27.05.2020 04:00:00 17,9 9,0 5 3 16 9 W 1027,8 - 0,0
27.05.2020 03:00:00 18,1 10,9 5 3 14 7 OZO 1027,7 - 0,0
27.05.2020 02:00:00 19,3 10,8 11 6 20 11 NNW 1027,3 - 0,0
27.05.2020 01:00:00 19,2 12,2 11 6 18 10 NNW 1027,1 - 0,0
27.05.2020 00:00:00 18,9 14,0 10 5 20 11 NW 1026,6 - 0,0
26.05.2020 23:00:00 19,4 13,8 3 2 6 3 ONO 1025,6 - 0,0
26.05.2020 22:00:00 20,0 13,2 4 2 5 3 O 1024,6 - 0,0
26.05.2020 21:00:00 20,7 14,3 6 3 7 4 Z 1024,1 - 0,0
26.05.2020 20:00:00 22,9 14,2 4 2 5 3 Z 1023,6 18 0,0
26.05.2020 19:00:00 23,7 13,0 2 1 15 8 ZZW 1023,4 - 0,0
26.05.2020 18:00:00 24,8 11,4 8 4 16 9 NNO 1023,5 - 0,0
26.05.2020 17:00:00 23,4 12,7 11 6 21 11 NO 1023,9 20 0,0
26.05.2020 16:00:00 23,0 12,9 15 8 28 15 ONO 1024,1 - 0,0
26.05.2020 15:00:00 22,8 16,3 20 11 34 18 ONO 1024,3 - 0,0
26.05.2020 14:00:00 25,6 15,6 22 12 31 17 NO 1024,4 - 0,0
26.05.2020 13:00:00 25,3 14,4 15 8 26 14 NO 1024,5 - 0,0
26.05.2020 12:00:00 25,3 11,5 16 9 30 16 NO 1024,5 - 0,0
26.05.2020 11:00:00 26,4 11,7 16 9 22 12 NNO 1024,3 - 0,0
26.05.2020 10:00:00 25,6 6,2 11 6 16 9 NNO 1024,0 - 0,0
26.05.2020 09:00:00 23,7 8,9 5 3 12 6 N 1023,9 - 0,0
26.05.2020 08:00:00 19,9 5,2 4 2 8 4 NNW 1024,1 18 0,0
26.05.2020 07:00:00 19,4 4,7 0 0 5 3 N 1023,8 - 0,0
26.05.2020 06:00:00 19,7 4,6 3 1 11 6 W 1023,3 - 0,0
26.05.2020 05:00:00 18,1 4,3 9 5 19 11 ZW 1023,1 18 0,0
26.05.2020 04:00:00 18,2 5,4 18 10 22 12 NNW 1023,3 - 0,0
26.05.2020 03:00:00 18,3 9,6 15 8 18 10 N 1023,4 - 0,0
26.05.2020 02:00:00 19,2 5,6 11 6 18 10 NNW 1023,5 - 0,0
26.05.2020 01:00:00 17,9 8,5 13 7 18 10 NNW 1023,7 - 0,0
26.05.2020 00:00:00 18,5 9,6 14 7 18 10 N 1023,5 - 0,0
25.05.2020 23:00:00 19,5 9,1 11 6 16 8 NNW 1023,4 - 0,0
25.05.2020 22:00:00 19,5 12,3 9 5 11 6 ZW 1023,0 - 0,0
25.05.2020 21:00:00 19,4 12,9 9 5 11 6 ZW 1022,6 - 0,0
25.05.2020 20:00:00 21,5 13,4 6 3 13 7 ZZO 1022,6 - 0,0
25.05.2020 19:00:00 22,9 13,4 5 3 13 7 ZZO 1022,5 - 0,0
25.05.2020 18:00:00 23,8 14,5 5 3 12 6 ZO 1022,9 - 0,0
25.05.2020 17:00:00 23,8 14,5 7 4 16 9 O 1023,4 - 0,0
25.05.2020 16:00:00 23,4 14,7 9 5 18 10 O 1024,0 - 0,0
25.05.2020 15:00:00 22,6 13,9 10 5 24 13 O 1024,2 - 0,0
25.05.2020 14:00:00 22,7 13,7 14 8 24 13 ONO 1024,4 - 0,0
25.05.2020 13:00:00 22,8 13,3 16 9 26 14 NO 1024,7 - 0,0
25.05.2020 12:00:00 22,5 11,9 18 10 26 14 ONO 1024,9 - 0,0
25.05.2020 11:00:00 22,2 13,5 16 9 28 15 ONO 1024,8 - 0,0
25.05.2020 10:00:00 23,8 15,6 16 9 28 15 NO 1024,7 - 0,0
25.05.2020 09:00:00 23,0 17,0 20 11 27 15 NNO 1024,3 - 0,0
25.05.2020 08:00:00 20,1 15,7 12 6 23 12 N 1024,3 18 0,0
25.05.2020 07:00:00 18,9 14,2 18 10 26 14 N 1024,1 - 0,0
25.05.2020 06:00:00 18,9 13,5 20 11 29 15 N 1023,6 - 0,0
25.05.2020 05:00:00 18,9 12,9 21 11 27 15 N 1023,4 18 0,0
25.05.2020 04:00:00 19,1 12,4 18 10 24 13 NNW 1023,4 - 0,0
25.05.2020 03:00:00 17,4 12,9 12 7 18 10 NW 1023,7 - 0,0
25.05.2020 02:00:00 16,8 13,3 12 6 18 10 NNW 1023,8 - 0,0
25.05.2020 01:00:00 18,0 14,1 16 9 21 11 NNW 1023,9 - 0,0
25.05.2020 00:00:00 17,7 15,3 14 8 19 10 N 1024,0 - 0,0
24.05.2020 23:00:00 18,5 15,9 10 5 16 9 N 1023,9 - 0,0
24.05.2020 22:00:00 20,0 15,4 13 7 18 10 N 1023,4 - 0,0
24.05.2020 21:00:00 20,5 16,9 9 5 23 12 NNW 1022,7 - 0,0
24.05.2020 20:00:00 23,7 17,9 5 3 11 6 NNO 1022,5 20 0,0
24.05.2020 19:00:00 23,6 17,6 9 5 16 9 NNO 1022,2 - 0,0
24.05.2020 18:00:00 25,1 16,8 8 4 18 10 ONO 1022,3 - 0,0
24.05.2020 17:00:00 25,9 17,3 13 7 26 14 NNO 1022,5 - 0,0
24.05.2020 16:00:00 25,7 17,9 21 11 29 16 NNO 1022,6 - 0,0
24.05.2020 15:00:00 25,1 17,3 20 11 28 15 NO 1022,8 - 0,0
24.05.2020 14:00:00 24,5 18,9 16 9 25 13 NO 1023,2 - 0,0
24.05.2020 13:00:00 24,2 19,1 16 9 26 14 NO 1023,4 - 0,0
24.05.2020 12:00:00 24,2 19,1 20 11 28 15 NNO 1023,2 - 0,0
24.05.2020 11:00:00 23,6 18,5 14 7 21 12 NNO 1023,2 - 0,0
24.05.2020 10:00:00 22,7 16,9 8 4 21 11 ONO 1023,0 - 0,0
24.05.2020 09:00:00 22,2 18,0 15 8 33 18 NNO 1022,5 - 0,0
24.05.2020 08:00:00 19,9 17,7 23 12 39 21 NNO 1022,1 15 0,0
24.05.2020 07:00:00 18,2 16,7 24 13 41 22 N 1021,8 - 0,0
24.05.2020 06:00:00 17,4 15,6 22 12 34 18 N 1021,2 - 0,0
24.05.2020 05:00:00 17,3 12,0 21 12 29 16 N 1021,0 - 0,0
24.05.2020 04:00:00 17,5 10,1 15 8 22 12 N 1020,9 - 0,0
24.05.2020 03:00:00 18,0 11,8 8 5 11 6 N 1021,2 - 0,0
24.05.2020 02:00:00 19,3 10,6 5 3 10 5 WZW 1021,6 - 0,0
24.05.2020 01:00:00 18,9 12,6 2 1 13 7 NNW 1022,4 - 0,0
24.05.2020 00:00:00 18,1 12,5 6 4 16 9 NW 1022,8 - 0,0
23.05.2020 23:00:00 18,0 14,1 10 5 15 8 N 1023,3 - 0,0
23.05.2020 22:00:00 18,7 17,5 9 5 13 7 N 1023,3 - 0,0
23.05.2020 21:00:00 19,8 17,4 5 3 6 3 NNO 1022,9 - 0,0
23.05.2020 20:00:00 21,5 17,5 4 2 11 6 ZO 1023,0 20 0,0
23.05.2020 19:00:00 22,3 16,3 9 5 13 7 ONO 1022,9 - 0,0
23.05.2020 18:00:00 23,4 15,7 7 4 14 8 O 1023,4 - 0,0
23.05.2020 17:00:00 23,2 16,0 9 5 16 8 ONO 1024,0 - 0,0
23.05.2020 16:00:00 23,2 16,7 8 4 16 9 OZO 1024,6 - 0,0
23.05.2020 15:00:00 23,4 16,9 9 5 19 10 O 1025,1 - 0,0
23.05.2020 14:00:00 24,2 16,2 11 6 22 12 OZO 1025,5 - 0,0
23.05.2020 13:00:00 24,5 15,1 11 6 18 10 O 1025,7 - 0,0
23.05.2020 12:00:00 26,0 11,7 8 4 14 8 ZO 1025,8 - 0,0
23.05.2020 11:00:00 25,5 11,3 6 3 13 7 ZO 1025,7 - 0,0
23.05.2020 10:00:00 24,7 8,6 5 3 15 8 ZZO 1025,8 - 0,0
23.05.2020 09:00:00 23,0 12,0 4 2 9 5 ZZO 1025,7 - 0,0
23.05.2020 08:00:00 19,7 13,8 3 1 9 5 ZW 1025,8 - 0,0
23.05.2020 07:00:00 19,3 11,6 9 5 21 11 NNW 1025,8 - 0,0
23.05.2020 06:00:00 17,8 12,0 14 7 26 14 N 1025,5 - 0,0
23.05.2020 05:00:00 19,0 11,1 21 11 31 17 N 1025,0 - 0,0
23.05.2020 04:00:00 19,1 11,1 24 13 29 16 NNW 1025,0 - 0,0
23.05.2020 03:00:00 18,6 10,7 20 11 24 13 N 1025,0 - 0,0
23.05.2020 02:00:00 21,5 9,1 0 0 8 4 N 1024,9 - 0,0
23.05.2020 01:00:00 20,7 8,7 5 3 9 5 ZW 1025,2 - 0,0
23.05.2020 00:00:00 19,3 9,2 8 5 9 5 ZW 1025,4 - 0,0
22.05.2020 23:00:00 18,7 10,3 4 2 18 10 NW 1025,4 - 0,0
22.05.2020 22:00:00 19,8 10,8 13 7 18 10 N 1025,3 - 0,0
22.05.2020 21:00:00 20,4 13,6 12 6 19 10 ZZW 1024,6 - 0,0
22.05.2020 20:00:00 23,9 11,2 14 8 21 11 Z 1024,1 - 0,0
22.05.2020 19:00:00 25,3 11,1 16 9 24 13 Z 1024,0 - 0,0
22.05.2020 18:00:00 24,7 12,0 10 5 19 11 Z 1024,1 - 0,0
22.05.2020 17:00:00 25,1 11,3 11 6 19 10 ZZO 1024,3 - 0,0
22.05.2020 16:00:00 24,7 11,6 13 7 22 12 ZZO 1024,6 - 0,0
22.05.2020 15:00:00 24,4 10,7 13 7 24 13 ZZO 1024,7 - 0,0
22.05.2020 14:00:00 24,5 12,4 14 7 22 12 ZO 1024,7 25 0,0
22.05.2020 13:00:00 25,2 9,1 8 4 18 10 ZO 1024,6 - 0,0
22.05.2020 12:00:00 25,2 10,3 10 6 20 11 ZO 1024,5 - 0,0
22.05.2020 11:00:00 24,7 12,0 10 5 21 11 ZZO 1024,2 - 0,0
22.05.2020 10:00:00 24,3 12,6 8 4 15 8 ZO 1024,0 - 0,0
22.05.2020 09:00:00 24,6 10,1 4 2 18 10 NNO 1023,5 - 0,0
22.05.2020 08:00:00 21,3 11,0 18 10 26 14 NNW 1023,0 - 0,0
22.05.2020 07:00:00 19,6 9,8 22 12 26 14 NNW 1022,3 - 0,0
22.05.2020 06:00:00 18,7 9,7 18 10 26 14 NNW 1022,0 - 0,0
22.05.2020 05:00:00 18,6 9,6 19 11 26 14 NNW 1021,7 15 0,0
22.05.2020 04:00:00 18,4 9,7 21 11 26 14 NNW 1021,6 - 0,0
22.05.2020 03:00:00 18,5 9,6 23 12 27 15 NNW 1021,7 - 0,0
22.05.2020 02:00:00 18,3 10,9 18 10 23 12 N 1021,4 - 0,0
22.05.2020 01:00:00 18,1 10,2 18 10 24 13 NNW 1021,1 - 0,0
22.05.2020 00:00:00 17,8 11,1 8 4 16 9 WNW 1020,7 - 0,0

tt = temperatuur
td = dauwpunt
ff = windsnelheid
fx = windstoten
dd = windrichting
ppp = luchtdruk
vv = zicht
rr = neerslag

Weerstations in de omgeving